Location: Casteau
(50.5142°N, 4.0161°E)
Time: 05:32:09
(UTC+00:00)

Vanguard 1 Rocket - Pass Details

Date: 02 August 2021
Orbit: 650 x 4226 km, 34.3° (Epoch: 21 September)

Event Time Altitude Azimuth Distance (km) Brightness Sun altitude
Rises 10:27:05 0° 239° (WSW) 7,913 12.2 53.2°
Reaches altitude 10° 10:33:42 10° 233° (SW) 6,419 11.9 53.7°
Maximum altitude 10:49:13 35° 177° (S) 3,227 11.6 54.9°
Drops below altitude 10° 10:58:09 10° 116° (ESE) 3,717 11.1 55.5°
Sets 11:00:51 0° 107° (ESE) 4,345 11.2 55.7°
